Location: Stara Lesna
(49.1528°N, 20.2911°E)
Time: 03:39:47
(UTC+02:00)

Cosmos 2360 - Pass Details

Date: 13 July 2020
Orbit: 844 x 858 km, 70.8° (Epoch: 11 August)

Event Time Altitude Azimuth Distance (km) Brightness Sun altitude
Rises 03:03:27 0° 330° (NNW) 3,442 7.8 -12.6°
Reaches altitude 10° 03:05:55 10° 330° (NNW) 2,503 7.0 -12.4°
Maximum altitude 03:11:41 83° 244° (WSW) 871 4.2 -11.9°
Drops below altitude 10° 03:17:25 10° 157° (SSE) 2,486 6.3 -11.3°
Sets 03:19:52 0° 156° (SSE) 3,418 7.1 -11.1°
